Year,Month,Day,Hour,Minute,Value (Times are PST for temperature in C)
2019,03,21,00,00,9.50
2019,03,21,00,01,9.50
2019,03,21,00,02,9.40
2019,03,21,00,03,9.40
2019,03,21,00,04,9.40
2019,03,21,00,05,9.40
2019,03,21,00,06,9.30
2019,03,21,00,07,9.30
2019,03,21,00,08,9.30
2019,03,21,00,09,9.20
2019,03,21,00,10,9.20
2019,03,21,00,11,9.20
2019,03,21,00,12,9.20
2019,03,21,00,13,9.20
2019,03,21,00,14,9.10
2019,03,21,00,15,9.10
2019,03,21,00,16,9.00
2019,03,21,00,17,9.00
2019,03,21,00,18,8.90
2019,03,21,00,19,8.90
2019,03,21,00,20,8.90
2019,03,21,00,21,8.80
2019,03,21,00,22,8.80
2019,03,21,00,23,8.80
2019,03,21,00,24,8.80
2019,03,21,00,25,8.70
2019,03,21,00,26,8.70
2019,03,21,00,27,8.70
2019,03,21,00,28,8.70
2019,03,21,00,29,8.70
2019,03,21,00,30,8.70
2019,03,21,00,31,8.70
2019,03,21,00,32,8.70
2019,03,21,00,33,8.70
2019,03,21,00,34,8.70
2019,03,21,00,35,8.70
2019,03,21,00,36,8.70
2019,03,21,00,37,8.70
2019,03,21,00,38,8.80
2019,03,21,00,39,8.80
2019,03,21,00,40,8.80
2019,03,21,00,41,8.80
2019,03,21,00,42,8.90
2019,03,21,00,43,8.90
2019,03,21,00,44,9.00
2019,03,21,00,45,9.00
2019,03,21,00,46,9.10
2019,03,21,00,47,9.10
2019,03,21,00,48,9.20
2019,03,21,00,49,9.20
2019,03,21,00,50,9.10
2019,03,21,00,51,9.00
2019,03,21,00,52,9.00
2019,03,21,00,53,9.00
2019,03,21,00,54,8.90
2019,03,21,00,55,8.90
2019,03,21,00,56,8.80
2019,03,21,00,57,8.80
2019,03,21,00,58,8.70
2019,03,21,00,59,8.70
2019,03,21,01,00,8.70
2019,03,21,01,01,8.60
2019,03,21,01,02,8.50
2019,03,21,01,03,8.50
2019,03,21,01,04,8.40
2019,03,21,01,05,8.30
2019,03,21,01,06,8.30
2019,03,21,01,07,8.20
2019,03,21,01,08,8.20
2019,03,21,01,09,8.20
2019,03,21,01,10,8.20
2019,03,21,01,11,8.20
2019,03,21,01,12,8.10
2019,03,21,01,13,8.10
2019,03,21,01,14,8.10
2019,03,21,01,15,8.10
2019,03,21,01,16,8.00
2019,03,21,01,17,8.00
2019,03,21,01,18,8.00
2019,03,21,01,19,8.00
2019,03,21,01,20,7.90
2019,03,21,01,21,7.90
2019,03,21,01,22,7.90
2019,03,21,01,23,7.90
2019,03,21,01,24,7.90
2019,03,21,01,25,7.90
2019,03,21,01,26,7.90
2019,03,21,01,27,7.90
2019,03,21,01,28,7.90
2019,03,21,01,29,7.90
2019,03,21,01,30,7.80
2019,03,21,01,31,7.80
2019,03,21,01,32,7.80
2019,03,21,01,33,7.80
2019,03,21,01,34,7.80
2019,03,21,01,35,7.80
2019,03,21,01,36,7.80
2019,03,21,01,37,7.70
2019,03,21,01,38,7.70
2019,03,21,01,39,7.70
2019,03,21,01,40,7.60
2019,03,21,01,41,7.60
2019,03,21,01,42,7.60
2019,03,21,01,43,7.60
2019,03,21,01,44,7.50
2019,03,21,01,45,7.50
2019,03,21,01,46,7.50
2019,03,21,01,47,7.50
2019,03,21,01,48,7.40
2019,03,21,01,49,7.40
2019,03,21,01,50,7.40
2019,03,21,01,51,7.40
2019,03,21,01,52,7.40
2019,03,21,01,53,7.40
2019,03,21,01,54,7.40
2019,03,21,01,55,7.40
2019,03,21,01,56,7.30
2019,03,21,01,57,7.30
2019,03,21,01,58,7.30
2019,03,21,01,59,7.30
2019,03,21,02,00,7.30
2019,03,21,02,01,7.20
2019,03,21,02,02,7.20
2019,03,21,02,03,7.20
2019,03,21,02,04,7.10
2019,03,21,02,05,7.10
2019,03,21,02,06,7.10
2019,03,21,02,07,7.00
2019,03,21,02,08,7.00
2019,03,21,02,09,7.00
2019,03,21,02,10,7.00
2019,03,21,02,11,7.00
2019,03,21,02,12,6.90
2019,03,21,02,13,6.90
2019,03,21,02,14,6.90
2019,03,21,02,15,6.80
2019,03,21,02,16,6.80
2019,03,21,02,17,6.80
2019,03,21,02,18,6.80
2019,03,21,02,19,6.80
2019,03,21,02,20,6.80
2019,03,21,02,21,6.80
2019,03,21,02,22,6.80
2019,03,21,02,23,6.80
2019,03,21,02,24,6.70
2019,03,21,02,25,6.70
2019,03,21,02,26,6.70
2019,03,21,02,27,6.70
2019,03,21,02,28,6.70
2019,03,21,02,29,6.70
2019,03,21,02,30,6.60
2019,03,21,02,31,6.60
2019,03,21,02,32,6.60
2019,03,21,02,33,6.60
2019,03,21,02,34,6.60
2019,03,21,02,35,6.60
2019,03,21,02,36,6.60
2019,03,21,02,37,6.60
2019,03,21,02,38,6.60
2019,03,21,02,39,6.60
2019,03,21,02,40,6.60
2019,03,21,02,41,6.60
2019,03,21,02,42,6.50
2019,03,21,02,43,6.40
2019,03,21,02,44,6.40
2019,03,21,02,45,6.40
2019,03,21,02,46,6.40
2019,03,21,02,47,6.40
2019,03,21,02,48,6.40
2019,03,21,02,49,6.40
2019,03,21,02,50,6.40
2019,03,21,02,51,6.40
2019,03,21,02,52,6.40
2019,03,21,02,53,6.40
2019,03,21,02,54,6.40
2019,03,21,02,55,6.40
2019,03,21,02,56,6.40
2019,03,21,02,57,6.30
2019,03,21,02,58,6.30
2019,03,21,02,59,6.30
2019,03,21,03,00,6.30
2019,03,21,03,01,6.30
2019,03,21,03,02,6.30
2019,03,21,03,03,6.30
2019,03,21,03,04,6.30
2019,03,21,03,05,6.20
2019,03,21,03,06,6.20
2019,03,21,03,07,6.20
2019,03,21,03,08,6.20
2019,03,21,03,09,6.20
2019,03,21,03,10,6.20
2019,03,21,03,11,6.20
2019,03,21,03,12,6.10
2019,03,21,03,13,6.10
2019,03,21,03,14,6.10
2019,03,21,03,15,6.10
2019,03,21,03,16,6.00
2019,03,21,03,17,6.00
2019,03,21,03,18,6.00
2019,03,21,03,19,5.90
2019,03,21,03,20,5.90
2019,03,21,03,21,5.90
2019,03,21,03,22,5.90
2019,03,21,03,23,5.90
2019,03,21,03,24,5.90
2019,03,21,03,25,5.90
2019,03,21,03,26,5.90
2019,03,21,03,27,5.90
2019,03,21,03,28,5.90
2019,03,21,03,29,5.90
2019,03,21,03,30,5.90
2019,03,21,03,47,5.70
2019,03,21,03,48,5.70
2019,03,21,03,49,5.70
2019,03,21,03,50,5.70
2019,03,21,03,51,5.70
2019,03,21,03,52,5.70
2019,03,21,03,53,5.70
2019,03,21,03,54,5.70
2019,03,21,03,55,5.70
2019,03,21,03,56,5.70
2019,03,21,03,57,5.70
2019,03,21,03,58,5.70
2019,03,21,03,59,5.70
2019,03,21,04,00,5.70
2019,03,21,04,01,5.70
2019,03,21,04,02,5.60
2019,03,21,04,03,5.60
2019,03,21,04,04,5.60
2019,03,21,04,05,5.60
2019,03,21,04,06,5.60
2019,03,21,04,07,5.60
2019,03,21,04,08,5.60
2019,03,21,04,09,5.50
2019,03,21,04,10,5.50
2019,03,21,04,11,5.50
2019,03,21,04,12,5.50
2019,03,21,04,13,5.50
2019,03,21,04,14,5.50
2019,03,21,04,15,5.50
2019,03,21,04,16,5.60
2019,03,21,04,17,5.60
2019,03,21,04,18,5.60
2019,03,21,04,19,5.60
2019,03,21,04,20,5.60
2019,03,21,04,21,5.60
2019,03,21,04,22,5.50
2019,03,21,04,23,5.50
2019,03,21,04,24,5.50
2019,03,21,04,25,5.50
2019,03,21,04,26,5.50
2019,03,21,04,27,5.50
2019,03,21,04,28,5.50
2019,03,21,04,29,5.40
2019,03,21,04,30,5.40
2019,03,21,04,31,5.40
2019,03,21,04,32,5.40
2019,03,21,04,33,5.40
2019,03,21,04,34,5.30
2019,03,21,04,35,5.30
2019,03,21,04,36,5.30
2019,03,21,04,37,5.30
2019,03,21,04,38,5.30
2019,03,21,04,39,5.30
2019,03,21,04,40,5.30
2019,03,21,04,41,5.30
2019,03,21,04,42,5.30
2019,03,21,04,43,5.30
2019,03,21,04,44,5.30
2019,03,21,04,45,5.30
2019,03,21,04,46,5.20
2019,03,21,04,47,5.20
2019,03,21,04,48,5.20
2019,03,21,04,49,5.20
2019,03,21,04,50,5.20
2019,03,21,04,51,5.20
2019,03,21,04,52,5.20
2019,03,21,04,53,5.20
2019,03,21,04,54,5.20
2019,03,21,04,55,5.20
2019,03,21,04,56,5.20
2019,03,21,04,57,5.20
2019,03,21,04,58,5.20
2019,03,21,04,59,5.10
2019,03,21,05,00,5.10
2019,03,21,05,01,5.10
2019,03,21,05,02,5.10
2019,03,21,05,03,5.10
2019,03,21,05,04,5.10
2019,03,21,05,05,5.10
2019,03,21,05,06,5.10
2019,03,21,05,07,5.10
2019,03,21,05,08,5.10
2019,03,21,05,09,5.10
2019,03,21,05,10,5.10
2019,03,21,05,11,5.10
2019,03,21,05,12,5.00
2019,03,21,05,13,4.90
2019,03,21,05,14,4.90
2019,03,21,05,15,4.90
2019,03,21,05,16,4.90
2019,03,21,05,17,4.90
2019,03,21,05,18,4.90
2019,03,21,05,19,4.90
2019,03,21,05,20,4.90
2019,03,21,05,21,4.90
2019,03,21,05,22,4.90
2019,03,21,05,23,4.90
2019,03,21,05,24,4.90
2019,03,21,05,25,4.90
2019,03,21,05,26,4.80
2019,03,21,05,27,4.80
2019,03,21,05,28,4.80
2019,03,21,05,29,4.80
2019,03,21,05,30,4.80
2019,03,21,05,31,4.70
2019,03,21,05,32,4.70
2019,03,21,05,33,4.70
2019,03,21,05,34,4.70
2019,03,21,05,35,4.70
2019,03,21,05,36,4.60
2019,03,21,05,37,4.60
2019,03,21,05,38,4.60
2019,03,21,05,39,4.60
2019,03,21,05,40,4.60
2019,03,21,05,41,4.60
2019,03,21,05,42,4.60
2019,03,21,05,43,4.60
2019,03,21,05,44,4.60
2019,03,21,05,45,4.60
2019,03,21,05,46,4.60
2019,03,21,05,47,4.60
2019,03,21,05,48,4.60
2019,03,21,05,49,4.60
2019,03,21,05,50,4.60
2019,03,21,05,51,4.60
2019,03,21,05,52,4.60
2019,03,21,05,53,4.60
2019,03,21,05,54,4.60
2019,03,21,05,55,4.60
2019,03,21,05,56,4.60
2019,03,21,05,57,4.60
2019,03,21,05,58,4.60
2019,03,21,05,59,4.60
2019,03,21,06,00,4.60
2019,03,21,06,01,4.60
2019,03,21,06,02,4.60
2019,03,21,06,03,4.60
2019,03,21,06,04,4.60
2019,03,21,06,05,4.60
2019,03,21,06,06,4.60
2019,03,21,06,07,4.60
2019,03,21,06,08,4.60
2019,03,21,06,09,4.60
2019,03,21,06,10,4.60
2019,03,21,06,11,4.60
2019,03,21,06,12,4.60
2019,03,21,06,13,4.60
2019,03,21,06,14,4.60
2019,03,21,06,15,4.50
2019,03,21,06,16,4.50
2019,03,21,06,17,4.50
2019,03,21,06,18,4.50
2019,03,21,06,19,4.50
2019,03,21,06,20,4.50
2019,03,21,06,21,4.50
2019,03,21,06,22,4.40
2019,03,21,06,23,4.40
2019,03,21,06,24,4.40
2019,03,21,06,25,4.40
2019,03,21,06,26,4.40
2019,03,21,06,27,4.40
2019,03,21,06,28,4.40
2019,03,21,06,29,4.40
2019,03,21,06,30,4.40
2019,03,21,06,31,4.30
2019,03,21,06,32,4.30
2019,03,21,06,33,4.30
2019,03,21,06,34,4.30
2019,03,21,06,35,4.30
2019,03,21,06,36,4.20
2019,03,21,06,37,4.20
2019,03,21,06,38,4.20
2019,03,21,06,39,4.20
2019,03,21,06,40,4.20
2019,03,21,06,41,4.20
2019,03,21,06,42,4.20
2019,03,21,06,43,4.20
2019,03,21,06,44,4.20
2019,03,21,06,45,4.20
2019,03,21,06,46,4.10
2019,03,21,06,47,4.10
2019,03,21,06,48,4.10
2019,03,21,06,49,4.10
2019,03,21,06,50,4.10
2019,03,21,06,51,4.10
2019,03,21,06,52,4.20
2019,03,21,06,53,4.20
2019,03,21,06,54,4.20
2019,03,21,06,55,4.20
2019,03,21,06,56,4.20
2019,03,21,06,57,4.20
2019,03,21,06,58,4.20
2019,03,21,06,59,4.20
2019,03,21,07,00,4.20
2019,03,21,07,01,4.20
2019,03,21,07,02,4.20
2019,03,21,07,03,4.20
2019,03,21,07,04,4.20
2019,03,21,07,05,4.20
2019,03,21,07,06,4.20
2019,03,21,07,07,4.20
2019,03,21,07,08,4.20
2019,03,21,07,09,4.20
2019,03,21,07,10,4.20
2019,03,21,07,11,4.20
2019,03,21,07,12,4.10
2019,03,21,07,13,4.10
2019,03,21,07,14,4.10
2019,03,21,07,15,4.10
2019,03,21,07,16,4.10
2019,03,21,07,17,4.10
2019,03,21,07,18,4.10
2019,03,21,07,19,4.10
2019,03,21,07,20,4.10
2019,03,21,07,21,4.10
2019,03,21,07,22,4.10
2019,03,21,07,23,4.10
2019,03,21,07,24,4.10
2019,03,21,07,25,4.20
2019,03,21,07,26,4.20
2019,03,21,07,27,4.20
2019,03,21,07,28,4.20
2019,03,21,07,29,4.10
2019,03,21,07,30,4.10
2019,03,21,07,31,4.10
2019,03,21,07,32,4.10
2019,03,21,07,33,4.10
2019,03,21,07,34,4.10
2019,03,21,07,35,4.10
2019,03,21,07,36,4.10
2019,03,21,07,37,4.10
2019,03,21,07,38,4.10
2019,03,21,07,39,4.10
2019,03,21,07,40,4.10
2019,03,21,07,41,4.10
2019,03,21,07,42,4.10
2019,03,21,07,43,4.20
2019,03,21,07,44,4.20
2019,03,21,07,45,4.20
2019,03,21,07,46,4.20
2019,03,21,07,47,4.20
2019,03,21,07,48,4.20
2019,03,21,07,49,4.20
2019,03,21,07,50,4.20
2019,03,21,07,51,4.20
2019,03,21,07,52,4.20
2019,03,21,07,53,4.30
2019,03,21,07,54,4.30
2019,03,21,07,55,4.30
2019,03,21,07,56,4.40
2019,03,21,07,57,4.40
2019,03,21,07,58,4.50
2019,03,21,07,59,4.50
2019,03,21,08,00,4.50
2019,03,21,08,01,4.50
2019,03,21,08,02,4.60
2019,03,21,08,03,4.60
2019,03,21,08,04,4.60
2019,03,21,08,05,4.60
2019,03,21,08,06,4.60
2019,03,21,08,07,4.70
2019,03,21,08,08,4.70
2019,03,21,08,09,4.70
2019,03,21,08,10,4.70
2019,03,21,08,11,4.70
2019,03,21,08,12,4.80
2019,03,21,08,13,4.80
2019,03,21,08,14,4.80
2019,03,21,08,15,4.80
2019,03,21,08,16,4.90
2019,03,21,08,17,4.90
2019,03,21,08,18,4.90
2019,03,21,08,19,4.90
2019,03,21,08,20,4.90
2019,03,21,08,21,5.00
2019,03,21,08,22,5.10
2019,03,21,08,23,5.10
2019,03,21,08,24,5.10
2019,03,21,08,25,5.10
2019,03,21,08,26,5.20
2019,03,21,08,27,5.20
2019,03,21,08,28,5.30
2019,03,21,08,29,5.30
2019,03,21,08,30,5.30
2019,03,21,08,31,5.40
2019,03,21,08,32,5.50
2019,03,21,08,33,5.50
2019,03,21,08,34,5.60
2019,03,21,08,35,5.70
2019,03,21,08,36,5.80
2019,03,21,08,37,5.90
2019,03,21,08,38,6.00
2019,03,21,08,39,6.10
2019,03,21,08,40,6.20
2019,03,21,08,41,6.30
2019,03,21,08,42,6.40
2019,03,21,08,43,6.50
2019,03,21,08,44,6.60
2019,03,21,08,45,6.70
2019,03,21,08,46,6.80
2019,03,21,08,47,6.80
2019,03,21,08,48,6.90
2019,03,21,08,49,6.90
2019,03,21,08,50,7.00
2019,03,21,08,51,7.00
2019,03,21,08,52,7.10
2019,03,21,08,53,7.20
2019,03,21,08,54,7.30
2019,03,21,08,55,7.30
2019,03,21,08,56,7.40
2019,03,21,08,57,7.50
2019,03,21,08,58,7.60
2019,03,21,08,59,7.70
2019,03,21,09,00,7.80
2019,03,21,09,01,7.80
2019,03,21,09,02,7.90
2019,03,21,09,03,8.00
2019,03,21,09,04,8.10
2019,03,21,09,05,8.20
2019,03,21,09,06,8.30
2019,03,21,09,07,8.30
2019,03,21,09,08,8.30
2019,03,21,09,09,8.30
2019,03,21,09,10,8.30
2019,03,21,09,11,8.50
2019,03,21,09,12,8.70
2019,03,21,09,13,8.80
2019,03,21,09,14,8.90
2019,03,21,09,15,9.00
2019,03,21,09,16,9.20
2019,03,21,09,17,9.20
2019,03,21,09,18,9.30
2019,03,21,09,19,9.40
2019,03,21,09,20,9.40
2019,03,21,09,21,9.50
2019,03,21,09,22,9.50
2019,03,21,09,23,9.60
2019,03,21,09,24,9.70
2019,03,21,09,25,9.70
2019,03,21,09,26,9.80
2019,03,21,09,27,9.90
2019,03,21,09,28,10.00
2019,03,21,09,29,10.10
2019,03,21,09,30,10.20
2019,03,21,09,31,10.30
2019,03,21,09,32,10.40
2019,03,21,09,33,10.50
2019,03,21,09,34,10.60
2019,03,21,09,35,10.60
2019,03,21,09,36,10.60
2019,03,21,09,37,10.60
2019,03,21,09,38,10.60
2019,03,21,09,39,10.40
2019,03,21,09,40,10.40
2019,03,21,09,41,10.40
2019,03,21,09,42,10.40
2019,03,21,09,43,10.40
2019,03,21,09,44,10.40
2019,03,21,09,45,10.50
2019,03,21,09,46,10.60
2019,03,21,09,47,10.70
2019,03,21,09,48,10.70
2019,03,21,09,49,10.80
2019,03,21,09,50,10.90
2019,03,21,09,51,11.00
2019,03,21,09,52,11.10
2019,03,21,09,53,11.20
2019,03,21,09,54,11.20
2019,03,21,09,55,11.20
2019,03,21,09,56,11.20
2019,03,21,09,57,11.30
2019,03,21,09,58,11.30
2019,03,21,09,59,11.30
2019,03,21,10,00,11.30
2019,03,21,10,01,11.40
2019,03,21,10,02,11.40
2019,03,21,10,03,11.50
2019,03,21,10,04,11.60
2019,03,21,10,05,11.70
2019,03,21,10,06,11.70
2019,03,21,10,07,11.80
2019,03,21,10,08,11.80
2019,03,21,10,09,11.90
2019,03,21,10,10,12.00
2019,03,21,10,11,12.00
2019,03,21,10,12,12.10
2019,03,21,10,13,12.10
2019,03,21,10,14,12.20
2019,03,21,10,15,12.20
2019,03,21,10,16,12.20
2019,03,21,10,17,12.20
2019,03,21,10,18,12.30
2019,03,21,10,19,12.30
2019,03,21,10,20,12.30
2019,03,21,10,21,12.40
2019,03,21,10,22,12.50
2019,03,21,10,23,12.50
2019,03,21,10,24,12.60
2019,03,21,10,25,12.70
2019,03,21,10,26,12.80
2019,03,21,10,27,12.80
2019,03,21,10,28,12.90
2019,03,21,10,29,12.90
2019,03,21,10,30,13.00
2019,03,21,10,31,13.10
2019,03,21,10,32,13.20
2019,03,21,10,33,13.30
2019,03,21,10,34,13.30
2019,03,21,10,35,13.30
2019,03,21,10,36,13.40
2019,03,21,10,37,13.40
2019,03,21,10,38,13.50
2019,03,21,10,39,13.50
2019,03,21,10,40,13.60
2019,03,21,10,41,13.60
2019,03,21,10,42,13.60
2019,03,21,10,43,13.70
2019,03,21,10,44,13.70
2019,03,21,10,45,13.70
2019,03,21,10,46,13.70
2019,03,21,10,47,13.80
2019,03,21,10,48,13.80
2019,03,21,10,49,13.90
2019,03,21,10,50,13.90
2019,03,21,10,51,13.80
2019,03,21,10,52,13.80
2019,03,21,10,53,13.70
2019,03,21,10,54,13.60
2019,03,21,10,55,13.60
2019,03,21,10,56,13.50
2019,03,21,10,57,13.50
2019,03,21,10,58,13.40
2019,03,21,10,59,13.40
2019,03,21,11,00,13.40
2019,03,21,11,01,13.40
2019,03,21,11,02,13.40
2019,03,21,11,03,13.30
2019,03,21,11,04,13.30
2019,03,21,11,05,13.20
2019,03,21,11,06,13.20
2019,03,21,11,07,13.20
2019,03,21,11,08,13.20
2019,03,21,11,09,13.20
2019,03,21,11,10,13.10
2019,03,21,11,11,13.10
2019,03,21,11,12,13.20
2019,03,21,11,13,13.20
2019,03,21,11,14,13.20
2019,03,21,11,15,13.20
2019,03,21,11,16,13.20
2019,03,21,11,17,13.30
2019,03,21,11,18,13.40
2019,03,21,11,19,13.50
2019,03,21,11,20,13.50
2019,03,21,11,21,13.60
2019,03,21,11,22,13.60
2019,03,21,11,23,13.70
2019,03,21,11,24,13.70
2019,03,21,11,25,13.80
2019,03,21,11,26,13.90
2019,03,21,11,27,14.00
2019,03,21,11,28,14.10
2019,03,21,11,29,14.20
2019,03,21,11,30,14.30
2019,03,21,11,31,14.40
2019,03,21,11,32,14.50
2019,03,21,11,33,14.50
2019,03,21,11,34,14.60
2019,03,21,11,35,14.60
2019,03,21,11,36,14.70
2019,03,21,11,37,14.80
2019,03,21,11,38,14.90
2019,03,21,11,39,15.00
2019,03,21,11,40,15.10
2019,03,21,11,41,15.10
2019,03,21,11,42,15.20
2019,03,21,11,43,15.20
2019,03,21,11,44,15.10
2019,03,21,11,45,15.10
2019,03,21,11,46,15.20
2019,03,21,11,47,15.20
2019,03,21,11,48,15.20
2019,03,21,11,49,15.10
2019,03,21,11,50,15.10
2019,03,21,11,51,15.00
2019,03,21,11,52,15.00
2019,03,21,11,53,15.00
2019,03,21,11,54,15.00
2019,03,21,11,55,15.00
2019,03,21,11,56,15.00
2019,03,21,11,57,15.10
2019,03,21,11,58,15.20
2019,03,21,11,59,15.20
2019,03,21,12,00,15.20
2019,03,21,12,01,15.20
2019,03,21,12,02,15.20
2019,03,21,12,03,15.20
2019,03,21,12,04,15.30
2019,03,21,12,05,15.30
2019,03,21,12,06,15.40
2019,03,21,12,07,15.50
2019,03,21,12,08,15.50
2019,03,21,12,09,15.50
2019,03,21,12,10,15.50
2019,03,21,12,11,15.50
2019,03,21,12,12,15.50
2019,03,21,12,13,15.50
2019,03,21,12,14,15.60
2019,03,21,12,15,15.60
2019,03,21,12,16,15.60
2019,03,21,12,17,15.60
2019,03,21,12,18,15.60
2019,03,21,12,19,15.60
2019,03,21,12,20,15.50
2019,03,21,12,21,15.50
2019,03,21,12,22,15.50
2019,03,21,12,23,15.40
2019,03,21,12,24,15.30
2019,03,21,12,25,15.10
2019,03,21,12,26,14.90
2019,03,21,12,27,14.70
2019,03,21,12,28,14.60
2019,03,21,12,29,14.40
2019,03,21,12,30,14.20
2019,03,21,12,31,14.00
2019,03,21,12,32,14.00
2019,03,21,12,33,13.90
2019,03,21,12,34,13.90
2019,03,21,12,35,13.90
2019,03,21,12,36,13.90
2019,03,21,12,37,13.90
2019,03,21,12,38,13.90
2019,03,21,12,39,13.90
2019,03,21,12,40,13.90
2019,03,21,12,41,13.90
2019,03,21,12,42,13.90
2019,03,21,12,43,13.90
2019,03,21,12,44,13.90
2019,03,21,12,45,14.10
2019,03,21,12,46,14.20
2019,03,21,12,47,14.20
2019,03,21,12,48,14.20
2019,03,21,12,49,14.20
2019,03,21,12,50,14.20
2019,03,21,12,51,14.20
2019,03,21,12,52,14.20
2019,03,21,12,53,14.20
2019,03,21,12,54,14.30
2019,03,21,12,55,14.30
2019,03,21,12,56,14.40
2019,03,21,12,57,14.50
2019,03,21,12,58,14.60
2019,03,21,12,59,14.60
2019,03,21,13,00,14.60
2019,03,21,13,01,14.60
2019,03,21,13,02,14.50
2019,03,21,13,03,14.40
2019,03,21,13,04,14.40
2019,03,21,13,05,14.20
2019,03,21,13,06,14.20
2019,03,21,13,07,14.20
2019,03,21,13,08,14.20
2019,03,21,13,09,14.20
2019,03,21,13,10,14.20
2019,03,21,13,11,14.20
2019,03,21,13,12,14.20
2019,03,21,13,13,14.10
2019,03,21,13,14,14.10
2019,03,21,13,15,14.10
2019,03,21,13,16,14.00
2019,03,21,13,17,13.90
2019,03,21,13,18,13.90
2019,03,21,13,19,14.00
2019,03,21,13,20,14.00
2019,03,21,13,21,14.10
2019,03,21,13,22,14.10
2019,03,21,13,23,14.10
2019,03,21,13,24,14.10
2019,03,21,13,25,14.20
2019,03,21,13,26,14.20
2019,03,21,13,27,14.20
2019,03,21,13,28,14.10
2019,03,21,13,29,14.10
2019,03,21,13,30,14.00
2019,03,21,13,31,14.00
2019,03,21,13,32,14.00
2019,03,21,13,33,14.10
2019,03,21,13,34,14.10
2019,03,21,13,35,14.10
2019,03,21,13,36,14.20
2019,03,21,13,37,14.20
2019,03,21,13,38,14.20
2019,03,21,13,39,14.20
2019,03,21,13,40,14.20
2019,03,21,13,41,14.30
2019,03,21,13,42,14.30
2019,03,21,13,43,14.30
2019,03,21,13,44,14.20
2019,03,21,13,45,14.20
2019,03,21,13,46,14.20
2019,03,21,13,47,14.10
2019,03,21,13,48,14.10
2019,03,21,13,49,14.10
2019,03,21,13,50,14.20
2019,03,21,13,51,14.20
2019,03,21,13,52,14.20
2019,03,21,13,53,14.20
2019,03,21,13,54,14.20
2019,03,21,13,55,14.20
2019,03,21,13,56,14.20
2019,03,21,13,57,14.40
2019,03,21,13,58,14.40
2019,03,21,13,59,14.40
2019,03,21,14,00,14.30
2019,03,21,14,01,14.20
2019,03,21,14,02,14.30
2019,03,21,14,03,14.40
2019,03,21,14,04,14.40
2019,03,21,14,05,14.50
2019,03,21,14,06,14.50
2019,03,21,14,07,14.50
2019,03,21,14,08,14.50
2019,03,21,14,09,14.50
2019,03,21,14,10,14.50
2019,03,21,14,11,14.60
2019,03,21,14,12,14.60
2019,03,21,14,13,14.60
2019,03,21,14,14,14.50
2019,03,21,14,15,14.70
2019,03,21,14,16,14.90
2019,03,21,14,17,15.00
2019,03,21,14,18,15.10
2019,03,21,14,19,15.20
2019,03,21,14,20,15.20
2019,03,21,14,21,15.20
2019,03,21,14,22,15.20
2019,03,21,14,23,15.20
2019,03,21,14,24,15.20
2019,03,21,14,25,15.30
2019,03,21,14,26,15.30
2019,03,21,14,27,15.10
2019,03,21,14,28,15.10
2019,03,21,14,29,15.10
2019,03,21,14,30,15.20
2019,03,21,14,31,15.20
2019,03,21,14,32,15.10
2019,03,21,14,33,15.10
2019,03,21,14,34,15.00
2019,03,21,14,35,15.00
2019,03,21,14,36,15.10
2019,03,21,14,37,15.10
2019,03,21,14,38,15.10
2019,03,21,14,39,15.10
2019,03,21,14,40,15.00
2019,03,21,14,41,15.00
2019,03,21,14,42,14.90
2019,03,21,14,43,14.90
2019,03,21,14,44,15.00
2019,03,21,14,45,15.10
2019,03,21,14,46,15.10
2019,03,21,14,47,15.20
2019,03,21,14,48,15.30
2019,03,21,14,49,15.20
2019,03,21,14,50,15.10
2019,03,21,14,51,15.10
2019,03,21,14,52,15.00
2019,03,21,14,53,15.00
2019,03,21,14,54,14.90
2019,03,21,14,55,14.90
2019,03,21,14,56,15.00
2019,03,21,14,57,15.10
2019,03,21,14,58,15.10
2019,03,21,14,59,15.00
2019,03,21,15,00,15.10
2019,03,21,15,01,15.10
2019,03,21,15,02,15.10
2019,03,21,15,03,15.10
2019,03,21,15,04,15.10
2019,03,21,15,05,15.10
2019,03,21,15,06,15.10
2019,03,21,15,07,15.00
2019,03,21,15,08,14.90
2019,03,21,15,09,14.80
2019,03,21,15,10,14.80
2019,03,21,15,11,14.80
2019,03,21,15,12,14.80
2019,03,21,15,13,14.80
2019,03,21,15,14,14.80
2019,03,21,15,15,14.80
2019,03,21,15,16,14.80
2019,03,21,15,17,14.80
2019,03,21,15,18,14.80
2019,03,21,15,19,14.80
2019,03,21,15,20,14.80
2019,03,21,15,21,14.80
2019,03,21,15,22,14.70
2019,03,21,15,23,14.70
2019,03,21,15,24,14.70
2019,03,21,15,25,14.70
2019,03,21,15,26,14.70
2019,03,21,15,27,14.70
2019,03,21,15,28,14.70
2019,03,21,15,29,14.70
2019,03,21,15,30,14.60
2019,03,21,15,31,14.60
2019,03,21,15,32,14.60
2019,03,21,15,33,14.60
2019,03,21,15,34,14.60
2019,03,21,15,35,14.60
2019,03,21,15,36,14.60
2019,03,21,15,37,14.60
2019,03,21,15,38,14.60
2019,03,21,15,39,14.60
2019,03,21,15,40,14.50
2019,03,21,15,41,14.50
2019,03,21,15,42,14.50
2019,03,21,15,43,14.40
2019,03,21,15,44,14.30
2019,03,21,15,45,14.30
2019,03,21,15,46,14.40
2019,03,21,15,47,14.50
2019,03,21,15,48,14.50
2019,03,21,15,49,14.50
2019,03,21,15,50,14.60
2019,03,21,15,51,14.60
2019,03,21,15,52,14.60
2019,03,21,15,53,14.60
2019,03,21,15,54,14.60
2019,03,21,15,55,14.60
2019,03,21,15,56,14.60
2019,03,21,15,57,14.70
2019,03,21,15,58,14.80
2019,03,21,15,59,14.80
2019,03,21,16,00,14.90
2019,03,21,16,01,15.00
2019,03,21,16,02,15.10
2019,03,21,16,03,15.20
2019,03,21,16,04,15.30
2019,03,21,16,05,15.40
2019,03,21,16,06,15.50
2019,03,21,16,07,15.60
2019,03,21,16,08,15.70
2019,03,21,16,09,15.80
2019,03,21,16,10,15.80
2019,03,21,16,11,15.80
2019,03,21,16,12,16.00
2019,03,21,16,13,16.10
2019,03,21,16,14,16.20
2019,03,21,16,15,16.30
2019,03,21,16,16,16.40
2019,03,21,16,17,16.40
2019,03,21,16,18,16.40
2019,03,21,16,19,16.50
2019,03,21,16,20,16.60
2019,03,21,16,21,16.70
2019,03,21,16,22,16.70
2019,03,21,16,23,16.80
2019,03,21,16,24,16.80
2019,03,21,16,25,16.90
2019,03,21,16,26,16.90
2019,03,21,16,27,17.00
2019,03,21,16,28,17.00
2019,03,21,16,29,17.00
2019,03,21,16,30,16.90
2019,03,21,16,31,16.90
2019,03,21,16,32,17.00
2019,03,21,16,33,17.00
2019,03,21,16,34,16.90
2019,03,21,16,35,17.00
2019,03,21,16,36,17.00
2019,03,21,16,37,17.00
2019,03,21,16,38,17.00
2019,03,21,16,39,17.10
2019,03,21,16,40,17.00
2019,03,21,16,41,17.10
2019,03,21,16,42,17.10
2019,03,21,16,43,17.10
2019,03,21,16,44,17.10
2019,03,21,16,45,17.10
2019,03,21,16,46,17.10
2019,03,21,16,47,17.10
2019,03,21,16,48,17.10
2019,03,21,16,49,17.20
2019,03,21,16,50,17.20
2019,03,21,16,51,17.20
2019,03,21,16,52,17.20
2019,03,21,16,53,17.10
2019,03,21,16,54,17.10
2019,03,21,16,55,17.00
2019,03,21,16,56,17.00
2019,03,21,16,57,16.90
2019,03,21,16,58,16.90
2019,03,21,16,59,16.90
2019,03,21,17,00,16.90
2019,03,21,17,01,16.80
2019,03,21,17,02,16.80
2019,03,21,17,03,16.70
2019,03,21,17,04,16.60
2019,03,21,17,05,16.60
2019,03,21,17,06,16.50
2019,03,21,17,07,16.40
2019,03,21,17,08,16.40
2019,03,21,17,09,16.40
2019,03,21,17,10,16.40
2019,03,21,17,11,16.30
2019,03,21,17,12,16.30
2019,03,21,17,13,16.30
2019,03,21,17,14,16.20
2019,03,21,17,15,16.20
2019,03,21,17,16,16.20
2019,03,21,17,17,16.10
2019,03,21,17,18,16.10
2019,03,21,17,19,16.10
2019,03,21,17,20,16.10
2019,03,21,17,21,16.10
2019,03,21,17,22,16.10
2019,03,21,17,23,16.10
2019,03,21,17,24,16.10
2019,03,21,17,25,16.10
2019,03,21,17,26,16.10
2019,03,21,17,27,16.10
2019,03,21,17,28,16.00
2019,03,21,17,29,15.90
2019,03,21,17,30,15.90
2019,03,21,17,31,15.80
2019,03,21,17,32,15.80
2019,03,21,17,33,15.80
2019,03,21,17,34,15.80
2019,03,21,17,35,15.80
2019,03,21,17,36,15.70
2019,03,21,17,37,15.70
2019,03,21,17,38,15.60
2019,03,21,17,39,15.60
2019,03,21,17,40,15.50
2019,03,21,17,41,15.50
2019,03,21,17,42,15.50
2019,03,21,17,43,15.40
2019,03,21,17,44,15.30
2019,03,21,17,45,15.30
2019,03,21,17,46,15.20
2019,03,21,17,47,15.20
2019,03,21,17,48,15.10
2019,03,21,17,49,15.10
2019,03,21,17,50,15.00
2019,03,21,17,51,15.00
2019,03,21,17,52,14.90
2019,03,21,17,53,14.90
2019,03,21,17,54,14.90
2019,03,21,17,55,14.80
2019,03,21,17,56,14.80
2019,03,21,17,57,14.80
2019,03,21,17,58,14.70
2019,03,21,17,59,14.70